Weather History for Tunica, MS

Change the Weather History Date:

Friday, January 31, 2014

  Actual Average (KMEM) Record (KMEM)
Temperature  
Mean Temperature 46 °F 42 °F  
Max Temperature 55 °F 51 °F 79 °F (2002)
Min Temperature 37 °F 33 °F 7 °F (1899)
Degree Days  
Heating Degree Days 19 23  
Month to date heating degree days 738  
Since 1 July heating degree days 1902  
Cooling Degree Days 0 0  
Month to date cooling degree days 1  
Year to date cooling degree days 1  
Moisture  
Dew Point 33 °F    
Average Humidity 58    
Maximum Humidity 75    
Minimum Humidity 33    
Precipitation  
Precipitation 0.00 in 0.14 in 3.96 in (1891)
Month to date precipitation 3.98  
Year to date precipitation 3.98  
Snow  
Snow 0.00 in 0.10 in 2.40 in (1951)
Month to date snowfall 1.9  
Since 1 July snowfall 2.1  
Snow Depth -    
Sea Level Pressure  
Sea Level Pressure 30.03 in    
Wind  
Wind Speed 9 mph (SSE)    
Max Wind Speed 18 mph    
Max Gust Speed 25 mph    
Visibility 10 miles    
Events      
T = Trace of Precipitation, MM = Missing Value Source: NWS Daily Summary

Daily Weather History Graph

Daily Weather History Graph

Search for Another Location

Airport:

Trip Planner

Search our weather history database for the weather conditions in past years. The results will help you decide how hot, cold, wet, or windy it might be!

Date:

Astronomy

Jan. 31, 2014 Rise Set
Actual Time 7:00 AM CST 5:29 PM CST
Civil Twilight 6:33 AM CST 5:56 PM CST
Nautical Twilight 6:03 AM CST 6:26 PM CST
Astronomical Twilight 5:33 AM CST 6:56 PM CST
Moon 7:14 AM CST (1/31) 6:48 PM CST (1/31)
Length of Visible Light 11h 22m
Length of Day
10h 29m
New Moon, 1% of the Moon is Illuminated
Jan 31
New Moon
Feb 6
First Quarter
Feb 14
Full
Feb 22
Last Quarter
Mar 1
New

Hourly Weather History & Observations

Time (CST) Temp. Windchill Dew Point Humidity Pressure Visibility Wind Dir Wind Speed Gust Speed Precip Events Conditions
12:15 AM 39.2 °F 33.6 °F 12.2 °F 33% 30.08 in 10.0 mi South 8.1 mph - N/A   Overcast
12:35 AM 39.2 °F 33.0 °F 12.2 °F 33% 30.08 in 10.0 mi South 9.2 mph - N/A   Overcast
12:55 AM 39.2 °F 32.5 °F 12.2 °F 33% 30.06 in 10.0 mi South 10.4 mph - N/A   Overcast
1:15 AM 39.2 °F 33.0 °F 12.2 °F 33% 30.06 in 10.0 mi South 9.2 mph - N/A   Overcast
1:35 AM 39.2 °F 32.5 °F 14.0 °F 36% 30.06 in 10.0 mi South 10.4 mph - N/A   Overcast
1:55 AM 39.2 °F 33.0 °F 14.0 °F 36% 30.05 in 10.0 mi South 9.2 mph - N/A   Overcast
2:15 AM 39.2 °F 33.0 °F 14.0 °F 36% 30.06 in 10.0 mi South 9.2 mph - N/A   Overcast
2:35 AM 39.2 °F 35.0 °F 15.8 °F 39% 30.06 in 10.0 mi South 5.8 mph - N/A   Overcast
2:55 AM 39.2 °F 35.9 °F 17.6 °F 42% 30.06 in 10.0 mi South 4.6 mph - N/A   Overcast
3:15 AM 41.0 °F 36.4 °F 17.6 °F 39% 30.07 in 10.0 mi South 6.9 mph - N/A   Overcast
3:35 AM 39.2 °F 33.6 °F 17.6 °F 42% 30.06 in 10.0 mi SSE 8.1 mph - N/A   Overcast
3:55 AM 41.0 °F 36.4 °F 19.4 °F 42% 30.06 in 10.0 mi South 6.9 mph - N/A   Overcast
4:15 AM 41.0 °F 38.0 °F 19.4 °F 42% 30.06 in 10.0 mi SSE 4.6 mph - N/A   Overcast
4:35 AM 41.0 °F 37.1 °F 21.2 °F 45% 30.06 in 10.0 mi SSE 5.8 mph - N/A   Overcast
4:55 AM 39.2 °F 35.9 °F 21.2 °F 49% 30.05 in 10.0 mi SSE 4.6 mph - N/A   Overcast
5:15 AM 41.0 °F 37.1 °F 21.2 °F 45% 30.06 in 10.0 mi SSE 5.8 mph - N/A   Overcast
5:35 AM 41.0 °F 37.1 °F 23.0 °F 49% 30.06 in 10.0 mi South 5.8 mph - N/A   Overcast
5:55 AM 41.0 °F 38.0 °F 23.0 °F 49% 30.07 in 10.0 mi South 4.6 mph - N/A   Overcast
6:15 AM 39.2 °F - 26.6 °F 61% 30.07 in 10.0 mi Calm Calm - N/A   Overcast
6:35 AM 39.2 °F 35.9 °F 26.6 °F 61% 30.08 in 10.0 mi SSE 4.6 mph - N/A   Mostly Cloudy
6:55 AM 39.2 °F 33.6 °F 28.4 °F 65% 30.08 in 10.0 mi SSE 8.1 mph - N/A   Mostly Cloudy
7:15 AM 37.4 °F 32.8 °F 30.2 °F 75% 30.07 in 10.0 mi SE 5.8 mph - N/A   Overcast
7:35 AM 39.2 °F 34.2 °F 30.2 °F 70% 30.07 in 10.0 mi SE 6.9 mph - N/A   Overcast
7:55 AM 39.2 °F 34.2 °F 30.2 °F 70% 30.08 in 10.0 mi SE 6.9 mph - N/A   Overcast
8:15 AM 41.0 °F 36.4 °F 30.2 °F 65% 30.08 in 10.0 mi SSE 6.9 mph - N/A   Mostly Cloudy
8:35 AM 41.0 °F 35.2 °F 32.0 °F 70% 30.08 in 10.0 mi SSE 9.2 mph - N/A   Drizzle
8:55 AM 41.0 °F 35.2 °F 32.0 °F 70% 30.09 in 10.0 mi SSE 9.2 mph - N/A   Overcast
9:15 AM 41.0 °F 35.2 °F 32.0 °F 70% 30.10 in 10.0 mi SSE 9.2 mph - N/A   Overcast
9:35 AM 42.8 °F 37.5 °F 32.0 °F 66% 30.10 in 10.0 mi SSE 9.2 mph - N/A   Overcast
9:55 AM 44.6 °F 38.4 °F 32.0 °F 61% 30.11 in 10.0 mi SSE 12.7 mph - N/A   Overcast
10:15 AM 44.6 °F 38.4 °F 32.0 °F 61% 30.11 in 10.0 mi SSE 12.7 mph - N/A   Mostly Cloudy
10:35 AM 44.6 °F 38.8 °F 33.8 °F 66% 30.11 in 10.0 mi SSE 11.5 mph - N/A   Mostly Cloudy
10:55 AM 46.4 °F 40.1 °F 33.8 °F 62% 30.10 in 10.0 mi SSE 15.0 mph - N/A   Mostly Cloudy
11:15 AM 46.4 °F 40.7 °F 35.6 °F 66% 30.09 in 10.0 mi South 12.7 mph - N/A   Mostly Cloudy
11:35 AM 48.2 °F - 35.6 °F 62% 30.08 in 10.0 mi South 13.8 mph 20.7 mph N/A   Mostly Cloudy
11:55 AM 50.0 °F - 37.4 °F 62% 30.06 in 10.0 mi South 15.0 mph - N/A   Mostly Cloudy
12:15 PM 51.8 °F - 37.4 °F 58% 30.05 in 10.0 mi South 18.4 mph 25.3 mph N/A   Mostly Cloudy
12:35 PM 51.8 °F - 37.4 °F 58% 30.04 in 10.0 mi South 15.0 mph 21.9 mph N/A   Mostly Cloudy
12:55 PM 53.6 °F - 37.4 °F 54% 30.03 in 10.0 mi South 15.0 mph - N/A   Scattered Clouds
1:15 PM 53.6 °F - 37.4 °F 54% 30.02 in 10.0 mi South 13.8 mph - N/A   Scattered Clouds
1:35 PM 53.6 °F - 39.2 °F 58% 30.02 in 10.0 mi South 13.8 mph 18.4 mph N/A   Mostly Cloudy
1:55 PM 53.6 °F - 39.2 °F 58% 30.01 in 10.0 mi South 12.7 mph - N/A   Mostly Cloudy
2:15 PM 55.4 °F - 41.0 °F 58% 29.99 in 10.0 mi SSE 12.7 mph - N/A   Mostly Cloudy
2:35 PM 55.4 °F - 41.0 °F 58% 29.98 in 10.0 mi South 12.7 mph - N/A   Mostly Cloudy
2:55 PM 55.4 °F - 41.0 °F 58% 29.98 in 10.0 mi South 15.0 mph 21.9 mph N/A   Overcast
3:15 PM 55.4 °F - 42.8 °F 63% 29.97 in 10.0 mi South 13.8 mph 21.9 mph N/A   Overcast
3:35 PM 55.4 °F - 42.8 °F 63% 29.97 in 10.0 mi South 12.7 mph - N/A   Overcast
3:55 PM 55.4 °F - 42.8 °F 63% 29.97 in 10.0 mi South 15.0 mph - N/A   Overcast
4:15 PM 55.4 °F - 42.8 °F 63% 29.98 in 10.0 mi South 12.7 mph - N/A   Overcast
4:35 PM 55.4 °F - 42.8 °F 63% 29.98 in 10.0 mi South 10.4 mph - N/A   Overcast
4:55 PM 55.4 °F - 41.0 °F 58% 29.98 in 10.0 mi South 9.2 mph - N/A   Overcast
5:15 PM 55.4 °F - 42.8 °F 63% 29.98 in 10.0 mi South 6.9 mph - N/A   Overcast
5:35 PM 53.6 °F - 41.0 °F 62% 29.99 in 10.0 mi SSW 5.8 mph - N/A   Overcast
5:55 PM 53.6 °F - 42.8 °F 67% 29.99 in 10.0 mi South 6.9 mph - N/A   Overcast
6:15 PM 53.6 °F - 42.8 °F 67% 29.99 in 10.0 mi South 5.8 mph - N/A   Overcast
6:35 PM 51.8 °F - 41.0 °F 67% 29.99 in 10.0 mi SSE 5.8 mph - N/A   Overcast
6:55 PM 53.6 °F - 42.8 °F 67% 30.00 in 10.0 mi SSE 4.6 mph - N/A   Overcast
7:15 PM 51.8 °F - 41.0 °F 67% 29.99 in 10.0 mi SE 5.8 mph - N/A   Overcast
7:35 PM 51.8 °F - 42.8 °F 71% 29.98 in 10.0 mi SE 6.9 mph - N/A   Overcast
7:55 PM 51.8 °F - 42.8 °F 71% 29.98 in 10.0 mi SE 8.1 mph - N/A   Overcast
8:15 PM 51.8 °F - 41.0 °F 67% 29.99 in 10.0 mi SSE 9.2 mph - N/A   Overcast
8:35 PM 51.8 °F - 41.0 °F 67% 29.99 in 10.0 mi SSE 8.1 mph - N/A   Overcast
8:55 PM 53.6 °F - 41.0 °F 62% 30.00 in 10.0 mi SSE 10.4 mph - N/A   Overcast
9:15 PM 53.6 °F - 41.0 °F 62% 29.99 in 10.0 mi SSE 10.4 mph - N/A   Overcast
9:35 PM 53.6 °F - 41.0 °F 62% 29.99 in 10.0 mi SSE 10.4 mph - N/A   Overcast
9:55 PM 53.6 °F - 41.0 °F 62% 29.98 in 10.0 mi SSE 10.4 mph - N/A   Overcast
10:15 PM 53.6 °F - 41.0 °F 62% 29.98 in 10.0 mi SSE 11.5 mph - N/A   Overcast
10:35 PM 53.6 °F - 41.0 °F 62% 29.99 in 10.0 mi SSE 10.4 mph - N/A   Overcast
10:55 PM 53.6 °F - 41.0 °F 62% 29.99 in 10.0 mi SSE 11.5 mph - N/A   Overcast
11:15 PM 53.6 °F - 41.0 °F 62% 29.98 in 10.0 mi SSE 11.5 mph - N/A   Overcast
11:35 PM 53.6 °F - 41.0 °F 62% 29.98 in 10.0 mi SSE 12.7 mph - N/A   Overcast
11:55 PM 53.6 °F - 42.8 °F 67% 29.98 in 10.0 mi South 10.4 mph - N/A   Overcast